Flag for Switzerland Weather past 2 weeks in Martigny, Valais, Switzerland

Now
79 °F

Warm.


Feels Like: 80 °F
Forecast: 58 / 85 °F
Wind: 18 mph from West

Location: Sion

Current Time: Jul 31, 2014 at 7:48:25 PM

Latest Report: Jul 31, 2014 at 7:00 PM


Visibility: N/A

Pressure: 29.77 "Hg

Humidity: 57%

Dew point: 62 °F

Location of MartignyLocation

Historic Weather in Martigny — Graph

°F

Martigny temperature yesterday

Maximum temperature yesterday: 69 °F (at 5:00 PM)
Minimum temperature yesterday: 60 °F (at 5:00 AM)
Average temperature yesterday: 64 °F

Past Weeks' High & Low Weather Summary

 TemperatureHumidityPressure
High92 °F (Jul 18, 4:00 PM)98% (Jul 21, 6:00 AM)30.20 "Hg (Jul 21, 6:00 AM)
Low55 °F (Jul 29, 6:00 AM)26% (Jul 18, 4:00 PM)29.72 "Hg (Jul 28, 4:00 PM)
Average68 °F73%29.93 "Hg
* Reported Jul 16 6:00 PM — Jul 31 6:00 PM, Martigny, Weather by CustomWeather, © 2014

Note: Actual official high and low records may vary slightly from our data, if they occured in-between our weather recording intervals... More about our weather records

Advertising

Martigny weather history for previous 24 hours

 ConditionsComfort  
Time TempWeatherWind HumidityBarometerVisibility
6:00 PM
Jul 31
79 °FWarm.20 mph55%29.77 "HgN/A
5:00 PM82 °FPassing clouds.17 mph51%29.78 "Hg16 mi
4:00 PM80 °FWarm.14 mph52%29.80 "HgN/A
3:00 PM80 °FWarm.10 mph51%29.82 "HgN/A
2:00 PM77 °FScattered clouds.6 mph53%29.85 "Hg12 mi
1:00 PM78 °FWarm.7 mph53%29.87 "HgN/A
12:00 PM73 °FMild.1 mph69%29.90 "HgN/A
11:00 AM67 °FOvercast.1 mph80%29.94 "Hg9 mi
10:00 AM65 °FMild.3 mph85%29.95 "HgN/A
9:00 AM65 °FMild.3 mph88%29.95 "HgN/A
8:00 AM64 °FOvercast.2 mph90%29.95 "Hg9 mi
7:00 AM63 °FMild.1 mph93%29.96 "HgN/A
6:00 AM63 °FMild.1 mph93%29.96 "HgN/A
5:00 AM63 °FOvercast.1 mph91%29.94 "Hg12 mi
4:00 AM62 °FCool.2 mph95%29.95 "HgN/A
3:00 AM63 °FMild.1 mph91%29.95 "HgN/A
2:00 AM63 °FOvercast.1 mph90%29.95 "Hg12 mi
1:00 AM64 °FMild.3 mph87%29.95 "HgN/A
12:00 AM64 °FMild.1 mph86%29.95 "HgN/A
11:00 PM
Jul 30
64 °FLight rain. Overcast.3 mph88%29.95 "Hg11 mi
10:00 PM65 °FMild.9 mph88%29.93 "HgN/A
9:00 PM66 °FMild.12 mph77%29.90 "HgN/A
8:00 PM67 °FMild.12 mph75%29.88 "HgN/A
7:00 PM69 °FMild.16 mph72%29.86 "HgN/A
Weather by CustomWeather, © 2014

See weather overviewHow to use our weather pages